Погода в Александровском Заводе

Россия / Забайкальский край     50°55′27″N   117°56′07″E
темп.,
°C
ветер,
м/с
пор.,
м/с
влажн.,
%
обл.,
%
осадки,
мм/ч
давл.,
гПа
погр.,
м
15 мая, сб
сб1500:00+4сз2275100 0.5 100845
03:00+3ссз4983100 0.5 1010811
06:00+3сз5118446 0.1 1011779
09:00+7ссз610587 0.1 10111191
12:00+12сз69365 0.0 10091941
15:00+15зсз6926100 0.0 10073284
18:00+14зсз792498 0.0 10062934
21:00+9зюз22375 0.0 100713
16 мая, вс
вс1600:00+7юз32430 0.0 100718
03:00+5зюз22430 0.0 100819
06:00+4зсз614510 0.0 1008654
09:00+8зсз811420 0.0 10071147
12:00+13зсз711345 0.0 10041656
15:00+17зсз811275 0.0 10032279
18:00+15зсз8144352 0.0 10022263
21:00+13зсз61348100 0.0 1002936
17 мая, пн
пн1700:00+11зсз713545 0.0 1002753
03:00+7сз4106588 0.0 1005449
06:00+5з116952 0.0 100610
09:00+9з233614 0.0 10051087
12:00+13юз4633100 0.0 10011595
15:00+9з4864100 0.3 10011098
18:00+9с3378100 1.6 998344
21:00+6ссз1287100 1.8 1000233
18 мая, вт
вт1800:00+6сз398321 0.1 1001783
03:00+5сз6127913 0.1 10031006
06:00+3сз5136976 0.0 1004663
09:00+7сз5113436 0.0 10051651
12:00+10зсз710275 0.0 10042349
15:00+12зсз7112440 0.0 10032808
18:00+11зсз711215 0.0 10032836
21:00+7з363353 0.0 100478
19 мая, ср
ср1900:00+5юз323863 0.0 100534
03:00+5ююз224472 0.0 100519
06:00+5юз374984 0.0 1004184
09:00+11зюз584163 0.0 10021477
12:00+12з6746100 0.1 10011668
15:00+8сз3379100 2.1 1001585
18:00+8с127861 3.3 1000439
21:00+6зюз0086100 3.3 100110